TimeCST,TemperatureF,Dew PointF,Humidity,Sea Level PressureIn,VisibilityMPH,Wind Direction,Wind SpeedMPH,Gust SpeedMPH,PrecipitationIn,Events,Conditions,WindDirDegrees,DateUTC
12:15 AM,33.8,32.0,93,30.12,3.0,East,9.2,-,N/A,,Scattered Clouds,90,2012-12-01 06:15:00
12:35 AM,33.8,32.0,93,30.13,3.0,East,8.1,-,N/A,,Clear,80,2012-12-01 06:35:00
1:15 AM,33.8,32.0,93,30.11,3.0,East,9.2,-,N/A,,Scattered Clouds,80,2012-12-01 07:15:00
3:15 AM,33.8,32.0,93,30.09,2.5,East,10.4,-,N/A,,Scattered Clouds,90,2012-12-01 09:15:00
3:35 AM,33.8,32.0,93,30.08,2.0,East,12.7,-,N/A,,Clear,90,2012-12-01 09:35:00
4:15 AM,32.0,32.0,100,30.06,1.5,East,11.5,-,N/A,,Unknown,90,2012-12-01 10:15:00
4:35 AM,32.0,32.0,100,30.06,1.5,East,10.4,-,N/A,,Unknown,90,2012-12-01 10:35:00
4:55 AM,32.0,32.0,100,30.04,1.5,East,11.5,-,N/A,,Unknown,90,2012-12-01 10:55:00
5:15 AM,32.0,32.0,100,30.04,1.2,East,13.8,-,N/A,,Mostly Cloudy,90,2012-12-01 11:15:00
5:35 AM,33.8,32.0,93,30.04,1.0,East,12.7,-,N/A,,Overcast,90,2012-12-01 11:35:00
5:55 AM,33.8,32.0,93,30.03,0.5,East,13.8,-,N/A,,Overcast,100,2012-12-01 11:55:00
6:15 AM,33.8,32.0,93,30.02,0.2,East,16.1,-,N/A,,Overcast,100,2012-12-01 12:15:00
6:35 AM,33.8,32.0,93,30.03,0.2,East,12.7,-,N/A,,Overcast,100,2012-12-01 12:35:00
6:55 AM,33.8,32.0,93,30.02,0.2,ESE,11.5,-,N/A,,Overcast,110,2012-12-01 12:55:00
7:15 AM,33.8,32.0,93,30.02,0.2,ESE,10.4,-,N/A,,Overcast,110,2012-12-01 13:15:00
7:35 AM,33.8,32.0,93,30.02,0.2,ESE,10.4,-,N/A,,Overcast,110,2012-12-01 13:35:00
7:55 AM,33.8,32.0,93,30.01,0.2,East,9.2,-,N/A,,Overcast,90,2012-12-01 13:55:00
8:15 AM,33.8,33.8,100,30.01,0.5,East,9.2,-,N/A,,Overcast,100,2012-12-01 14:15:00
8:35 AM,35.6,33.8,93,30.00,1.2,East,9.2,-,N/A,,Overcast,100,2012-12-01 14:35:00
8:55 AM,35.6,33.8,93,30.00,1.8,East,9.2,-,N/A,,Overcast,100,2012-12-01 14:55:00
9:15 AM,37.4,35.6,93,29.98,2.0,East,11.5,-,N/A,,Overcast,100,2012-12-01 15:15:00
10:15 AM,41.0,37.4,87,29.98,4.0,ESE,6.9,-,N/A,,Overcast,110,2012-12-01 16:15:00
10:55 AM,42.8,37.4,81,29.95,5.0,SE,10.4,-,N/A,,Overcast,140,2012-12-01 16:55:00
12:15 PM,44.6,41.0,87,29.92,7.0,South,10.4,-,N/A,,Overcast,170,2012-12-01 18:15:00
12:35 PM,44.6,41.0,87,29.90,5.0,SSE,8.1,-,N/A,,Overcast,150,2012-12-01 18:35:00
12:55 PM,44.6,41.0,87,29.89,5.0,SSE,10.4,-,N/A,,Overcast,150,2012-12-01 18:55:00
1:15 PM,44.6,42.8,93,29.89,4.0,SSE,9.2,-,N/A,,Overcast,160,2012-12-01 19:15:00
1:35 PM,44.6,42.8,93,29.89,2.0,South,5.8,-,0.01,,Overcast,180,2012-12-01 19:35:00
2:15 PM,44.6,42.8,93,29.87,1.2,SSE,5.8,-,N/A,,Overcast,150,2012-12-01 20:15:00
2:35 PM,44.6,42.8,93,29.87,0.8,SSE,5.8,-,N/A,,Overcast,150,2012-12-01 20:35:00
2:55 PM,44.6,42.8,93,29.87,1.0,SSE,6.9,-,N/A,,Overcast,150,2012-12-01 20:55:00
3:15 PM,44.6,42.8,93,29.86,1.0,SSE,8.1,-,N/A,,Overcast,150,2012-12-01 21:15:00
3:35 PM,44.6,42.8,93,29.86,0.8,SSE,9.2,-,N/A,,Overcast,150,2012-12-01 21:35:00
3:55 PM,44.6,44.6,100,29.86,1.0,SSE,6.9,-,N/A,,Overcast,160,2012-12-01 21:55:00
4:15 PM,46.4,44.6,93,29.85,1.0,SSE,6.9,-,N/A,,Overcast,160,2012-12-01 22:15:00
4:35 PM,46.4,44.6,93,29.85,1.5,South,9.2,-,N/A,,Overcast,170,2012-12-01 22:35:00
4:55 PM,46.4,44.6,93,29.84,1.5,SSE,8.1,-,N/A,,Overcast,160,2012-12-01 22:55:00
5:15 PM,48.2,46.4,93,29.84,2.5,South,10.4,-,N/A,,Overcast,170,2012-12-01 23:15:00
5:55 PM,50.0,48.2,94,29.84,3.0,South,9.2,-,N/A,,Overcast,170,2012-12-01 23:55:00
6:15 PM,50.0,48.2,94,29.85,3.0,South,8.1,-,N/A,,Overcast,170,2012-12-02 00:15:00
6:35 PM,50.0,48.2,94,29.85,3.0,South,6.9,-,N/A,,Overcast,180,2012-12-02 00:35:00
6:55 PM,50.0,48.2,94,29.86,2.5,South,4.6,-,N/A,,Overcast,190,2012-12-02 00:55:00
7:15 PM,50.0,48.2,94,29.86,2.5,SSW,6.9,-,N/A,,Overcast,200,2012-12-02 01:15:00
7:35 PM,50.0,48.2,94,29.86,2.5,SSW,8.1,-,N/A,,Overcast,200,2012-12-02 01:35:00
7:55 PM,50.0,48.2,94,29.86,2.0,South,5.8,-,N/A,,Overcast,190,2012-12-02 01:55:00
8:15 PM,50.0,48.2,94,29.86,2.0,SSW,8.1,-,N/A,,Overcast,200,2012-12-02 02:15:00
8:35 PM,50.0,48.2,94,29.85,2.0,South,8.1,-,N/A,,Overcast,190,2012-12-02 02:35:00
8:55 PM,50.0,48.2,94,29.85,1.8,SSW,6.9,-,N/A,,Overcast,200,2012-12-02 02:55:00
9:15 PM,50.0,48.2,94,29.85,2.0,SSW,4.6,-,N/A,,Overcast,200,2012-12-02 03:15:00
9:35 PM,50.0,48.2,94,29.85,1.8,SSW,5.8,-,N/A,,Overcast,200,2012-12-02 03:35:00
9:55 PM,50.0,48.2,94,29.85,1.5,SSW,4.6,-,N/A,,Overcast,200,2012-12-02 03:55:00
10:15 PM,50.0,48.2,94,29.85,1.2,SSW,3.5,-,N/A,,Overcast,200,2012-12-02 04:15:00
10:35 PM,50.0,48.2,94,29.84,0.8,SSW,4.6,-,N/A,,Overcast,200,2012-12-02 04:35:00
10:55 PM,50.0,48.2,94,29.85,1.8,South,6.9,-,N/A,,Overcast,190,2012-12-02 04:55:00
11:15 PM,50.0,48.2,94,29.85,2.0,SSW,4.6,-,N/A,,Overcast,200,2012-12-02 05:15:00
11:35 PM,50.0,50.0,100,29.85,1.8,South,6.9,-,N/A,,Overcast,190,2012-12-02 05:35:00
11:55 PM,50.0,48.2,94,29.85,2.0,South,5.8,-,N/A,,Overcast,190,2012-12-02 05:55:00